Temperature
22 22 21 21 20 20 19 19 18 17 16 16 15 15 14 14 14 14 13 13 13 13 13 13 13 13 13 13 13 13 14 14 14 15 15 15 15 16 16 16 16 16 16
21 21 21 21 20 20 19 18 18 17 16 16 15 15 14 14 14 13 13 13 13 13 13 13 13 13 13 13 13 13 13 14 14 14 15 15 15 15 16 16 16 16 16
22 21 21 21 20 20 19 19 18 17 16 16 15 15 14 14 14 13 13 13 13 13 13 13 13 13 13 13 13 13 13 14 14 14 14 14 14 15 15 16 16 16 16
22 21 21 21 20 20 19 19 18 17 16 16 15 15 14 14 14 13 13 13 13 13 13 13 13 13 13 13 13 13 13 13 14 14 14 14 14 14 15 15 16 16 16
22 22 21 21 20 20 19 18 18 17 16 16 15 15 14 14 14 13 13 13 13 13 13 13 13 13 13 13 13 13 13 13 13 13 14 14 14 14 14 15 15 15 16
22 22 21 21 20 19 19 18 18 17 16 16 15 15 14 14 14 14 13 13 13 13 13 13 13 13 13 13 13 13 13 13 13 13 13 14 14 14 14 14 15 15 15
22 22 21 20 20 19 19 18 18 17 16 16 15 15 14 14 14 14 13 13 13 13 13 13 13 13 13 13 13 13 13 13 13 13 13 13 13 14 14 14 14 14 15
22 22 22 21 20 20 19 18 18 17 16 16 15 15 15 14 14 14 14 13 13 13 13 13 13 13 13 13 13 13 13 13 13 13 13 13 13 13 14 14 14 14 14
22 22 22 21 21 20 19 19 18 17 17 16 15 15 15 14 14 14 14 14 13 13 13 13 13 13 13 13 13 13 13 13 13 13 13 13 13 13 13 13 14 14 14
22 22 22 21 21 20 19 19 18 17 17 16 16 15 15 15 14 14 14 14 14 14 14 13 13 13 13 13 13 13 13 13 13 13 13 13 13 13 13 13 13 14 14
23 22 22 21 21 20 19 19 18 17 17 16 16 15 15 15 14 14 14 14 14 14 14 14 14 13 13 13 13 13 13 13 13 13 13 13 13 13 13 13 13 13 13
23 23 22 21 20 20 19 19 18 18 17 17 16 16 15 15 15 14 14 14 14 14 14 14 14 14 13 13 13 13 13 13 13 13 13 13 13 13 13 13 13 13 13
23 22 22 21 21 20 20 19 18 18 17 17 16 16 15 15 15 15 14 14 14 14 14 14 14 14 13 13 13 13 13 13 13 13 13 13 13 13 13 13 13 13 13
22 22 22 21 21 20 20 19 19 18 18 17 16 16 16 15 15 15 15 14 14 14 14 14 14 14 14 13 13 13 13 13 13 13 13 13 13 13 13 13 12 12 13
21 21 21 21 21 20 20 19 19 18 18 17 17 16 16 16 15 15 15 15 14 14 14 14 14 14 13 13 13 13 13 13 13 13 13 13 13 13 13 13 13 12 13
21 21 21 21 20 20 20 19 19 18 18 17 17 17 16 16 15 15 15 15 15 14 14 14 14 14 13 13 13 13 13 13 13 13 13 13 13 13 13 12 12 12 12
20 20 21 21 21 20 20 20 19 19 18 18 17 17 16 16 16 15 15 15 15 14 14 14 14 14 13 13 13 13 13 13 13 13 13 13 13 12 12 12 12 12 12
20 20 20 21 21 20 20 20 19 19 18 18 17 17 17 16 16 15 15 15 15 14 14 14 14 13 13 13 13 13 13 13 13 12 12 12 12 12 12 12 12 12 12
19 20 20 20 20 20 20 19 19 19 18 18 18 17 17 16 16 16 15 15 15 14 14 14 14 13 13 13 13 13 12 12 12 12 12 12 12 12 12 12 12 12 12
19 19 20 20 20 20 19 19 19 18 18 18 18 18 17 17 16 16 16 15 15 14 14 14 14 13 13 13 13 12 12 12 12 12 12 12 12 12 12 12 12 12 12
18 19 19 19 19 19 19 19 18 18 18 18 18 17 17 17 16 16 16 15 15 14 14 14 13 13 13 13 12 12 12 12 12 12 11 11 11 11 11 11 11 11 11
17 18 18 18 18 18 18 18 18 18 18 18 18 17 17 17 17 16 16 15 15 14 14 13 13 13 12 12 12 12 12 12 12 11 11 11 11 11 11 11 11 11 11
16 16 17 17 18 17 17 17 18 18 18 17 17 17 17 17 17 16 16 15 15 14 14 13 13 13 12 12 12 12 12 11 11 11 11 11 10 10 10 10 10 10 10
15 15 16 16 17 17 17 17 17 17 17 17 17 17 17 17 16 16 16 15 15 14 14 13 13 13 13 12 12 11 11 11 11 11 10 10 10 10 10 10 10 10 10
14 14 15 15 15 16 16 16 16 16 16 17 17 16 16 16 16 16 16 15 15 15 14 14 14 13 13 12 12 11 11 11 11 10 10 10 9 9 9 9 9 9 9
13 13 14 14 15 15 15 15 15 15 15 16 16 16 16 16 16 16 15 15 14 14 14 13 13 13 12 12 11 11 11 10 10 10 10 9 9 9 9 9 8 8 8
Wind_Speed
9 9 10 11 11 10 10 9 8 6 5 3 3 2 0 0 1 1 1 0 1 2 2 2 3 3 2 1 2 1 2 2 2 2 3 3 2 1 1 1 1 2 3
8 10 10 10 11 11 10 9 9 7 6 4 3 2 2 1 1 1 1 1 1 1 1 1 2 2 1 2 2 2 1 2 2 2 2 3 4 3 2 1 1 1 1
15 13 11 10 10 11 11 10 9 8 6 5 3 3 3 3 2 2 2 2 2 1 1 1 1 1 1 1 1 1 2 1 2 2 3 2 1 2 3 2 2 1 1
13 13 12 11 11 11 10 10 9 8 7 6 5 4 3 1 2 2 2 2 2 2 1 1 0 1 0 0 1 1 1 2 1 1 1 1 2 1 2 3 3 2 1
15 15 14 13 11 10 10 10 9 8 7 6 6 5 3 2 2 1 1 2 2 2 1 1 1 1 0 0 1 1 1 1 1 1 0 1 1 1 2 1 3 3 2
12 12 11 10 9 9 9 10 10 7 7 6 6 6 5 3 1 1 1 1 2 2 2 1 1 0 0 1 0 1 1 1 1 1 1 1 1 1 1 1 1 2 2
12 12 12 11 11 11 10 10 10 8 7 7 6 6 6 5 4 3 2 1 1 2 3 1 1 1 1 0 1 2 1 1 1 1 1 1 1 1 2 1 0 1 2
11 13 14 13 12 12 11 11 11 9 8 7 6 6 5 4 3 4 3 3 3 3 3 2 2 1 1 1 1 1 1 1 1 1 1 1 0 1 1 2 2 1 2
12 13 12 12 12 13 12 12 11 9 8 8 7 6 5 5 5 4 3 2 3 2 2 1 2 1 1 1 1 1 0 1 1 1 1 1 0 0 1 1 2 3 1
10 11 11 12 12 12 11 11 11 10 9 9 8 6 6 6 5 4 4 3 3 2 1 1 1 1 1 1 1 1 1 0 0 1 1 0 0 0 0 1 1 2 3
11 11 11 11 11 10 10 10 10 9 8 9 7 7 6 6 5 4 5 4 3 2 2 2 2 2 1 1 2 1 1 1 0 0 1 0 0 0 0 1 1 1 2
9 10 11 10 9 10 10 10 10 10 9 9 8 8 7 6 5 5 5 5 4 3 3 3 3 3 2 2 2 2 1 1 1 1 1 1 1 1 1 1 1 1 1
6 6 8 9 10 11 10 11 11 10 9 9 9 8 7 6 6 6 5 4 3 3 2 2 3 3 2 2 2 2 2 2 2 2 2 2 1 1 1 1 1 0 0
4 5 7 9 10 10 11 11 11 10 10 9 9 9 8 8 7 6 5 5 4 3 2 2 3 3 2 2 1 1 1 1 1 2 3 2 3 3 3 2 2 1 1
2 4 7 8 8 9 9 10 10 10 10 10 10 10 9 7 7 6 6 5 4 4 3 2 2 2 2 2 2 2 1 1 1 1 1 2 3 4 4 3 3 2 1
4 4 5 6 8 10 10 9 10 10 10 11 11 10 8 8 7 7 6 5 4 3 2 2 2 2 1 2 3 3 2 1 1 1 1 1 1 2 3 3 4 4 3
5 5 6 7 9 10 10 11 11 10 10 11 10 10 9 9 8 7 6 6 5 4 3 3 3 2 2 2 2 3 2 2 1 1 1 0 0 1 1 1 2 1 1
7 6 5 6 7 7 7 7 8 9 11 11 10 10 10 9 8 7 7 6 5 4 4 3 3 3 2 2 2 3 3 2 1 1 1 1 0 0 2 3 2 2 1
7 6 5 5 5 4 6 6 7 9 10 11 11 11 11 10 9 9 8 6 5 5 4 3 4 3 2 2 3 5 3 2 1 0 1 2 1 1 3 4 3 2 2
9 7 5 4 3 4 3 6 7 8 11 12 12 11 11 11 11 11 8 6 5 6 5 4 4 4 3 3 4 5 3 3 1 1 2 2 3 3 4 4 3 2 0
9 8 5 4 4 3 2 5 6 10 11 9 9 10 11 11 11 9 7 7 6 6 5 5 3 3 3 3 5 6 4 4 3 2 1 1 3 4 4 4 3 3 2
10 8 6 6 5 3 2 4 7 7 5 6 8 10 11 10 9 9 8 8 8 7 6 5 3 2 2 3 4 6 6 6 4 3 1 1 3 4 5 4 4 4 4
10 9 7 7 6 5 3 6 7 4 3 6 8 9 10 9 9 10 10 7 7 7 6 6 5 3 2 2 5 6 7 7 4 2 3 3 4 4 4 5 5 4 3
10 9 8 8 8 7 6 6 5 3 4 6 7 8 9 8 8 8 9 8 9 8 8 7 6 5 3 3 3 3 4 5 4 2 3 5 6 5 4 4 4 3 3
9 9 9 9 9 8 8 6 4 3 5 5 6 6 8 9 8 7 7 9 9 10 10 8 8 8 7 8 10 8 5 5 4 4 3 3 2 3 3 3 3 3 3
10 10 11 10 10 9 8 7 4 4 5 5 5 5 6 7 7 7 3 2 5 9 12 12 11 8 9 11 12 11 9 9 9 6 4 3 3 3 3 3 2 2 2
Wind_Direction
183 163 156 152 150 150 147 145 144 146 131 115 112 104 102 282 296 273 268 2 8 18 36 2 348 354 6 344 352 8 357 347 1 32 360 346 328 289 250 236 210 220 221
166 164 158 156 160 160 156 154 153 152 148 147 155 166 177 219 240 281 306 283 276 321 10 13 347 347 3 8 14 41 34 355 32 82 64 7 351 340 330 307 243 237 220
176 174 168 165 161 162 163 161 159 154 154 145 114 80 57 32 16 335 303 295 274 302 12 2 358 1 48 2 338 59 96 34 358 67 114 115 255 311 330 340 351 343 222
177 173 171 168 169 170 163 155 156 156 156 143 131 135 141 174 240 247 264 290 289 288 302 348 11 30 60 358 318 69 110 110 48 0 42 143 171 134 343 339 341 334 310
176 176 176 174 171 164 159 156 154 156 158 150 146 145 154 196 245 270 311 315 310 308 307 328 17 38 31 349 15 37 72 103 121 107 30 37 49 85 119 329 330 342 325
175 173 169 162 163 159 156 154 154 161 164 159 156 163 168 173 176 291 325 300 295 307 305 290 318 338 352 358 40 58 77 80 87 94 108 121 100 94 114 160 310 318 309
169 168 169 170 168 166 164 160 159 168 174 171 174 179 178 178 191 211 218 226 264 276 278 273 274 269 253 23 67 64 53 71 89 97 112 121 173 175 148 139 283 330 317
177 179 180 178 175 173 169 166 169 174 180 182 187 188 182 180 198 209 204 208 220 238 252 255 255 255 233 127 88 69 31 89 99 104 112 103 86 131 147 160 149 44 344
185 186 184 181 178 177 178 175 176 179 186 188 185 189 190 189 200 205 199 211 228 240 244 242 240 247 210 151 123 91 345 111 137 154 131 114 299 47 135 148 156 150 136
191 190 188 186 185 184 182 178 178 183 188 188 189 192 195 198 200 195 207 221 234 230 212 210 201 198 190 164 138 151 246 103 264 164 111 83 292 9 50 111 126 148 163
198 195 193 191 188 184 180 181 185 184 189 192 193 190 199 203 201 207 219 223 227 220 213 207 195 186 185 169 150 183 178 152 302 282 150 206 195 84 46 80 90 114 149
204 197 191 185 184 187 188 189 189 189 194 193 190 194 201 198 200 213 222 220 226 233 225 213 199 197 189 172 172 197 195 193 212 233 180 247 159 131 108 106 108 147 174
207 198 191 190 193 194 195 195 196 197 195 188 188 193 198 198 204 214 218 216 218 228 231 204 203 204 198 187 197 198 201 213 218 215 211 230 167 183 176 144 137 132 94
205 202 204 204 203 201 200 199 202 198 192 186 186 194 201 201 204 208 208 207 204 204 207 208 201 199 192 181 191 184 184 210 231 224 220 217 194 196 194 181 174 149 94
239 218 218 218 213 209 208 205 203 197 191 185 191 201 202 198 196 199 202 202 199 199 192 184 196 201 191 204 195 190 180 198 255 263 238 226 204 195 184 169 172 156 137
265 248 236 227 220 216 212 208 205 198 188 189 197 199 193 190 192 196 193 188 192 193 173 177 183 195 224 211 184 169 175 185 184 235 279 268 214 194 174 157 150 153 158
295 275 250 237 229 220 210 209 206 195 189 195 197 194 189 189 193 192 184 187 192 187 182 185 176 189 237 226 186 170 158 166 184 194 218 235 128 162 141 141 119 99 127
318 301 287 268 251 228 215 209 196 190 193 196 198 195 190 192 189 184 188 193 187 186 190 189 185 189 237 232 194 153 127 124 150 179 184 172 219 155 143 126 100 59 21
316 295 280 272 261 244 220 196 193 194 195 200 200 198 192 190 186 188 193 190 180 186 191 189 185 184 233 221 171 143 125 114 71 31 129 160 167 164 133 125 118 68 3
338 328 321 321 305 277 226 195 200 197 206 209 205 198 191 189 191 194 192 185 179 186 184 184 184 182 201 191 166 150 136 131 115 61 53 96 114 116 125 134 137 128 342
339 340 337 324 296 294 225 210 212 216 218 211 201 194 191 192 192 189 185 178 177 173 175 180 186 186 194 188 171 158 149 156 145 127 76 57 84 95 108 126 140 150 134
342 342 335 320 318 320 250 231 232 235 221 201 198 196 193 194 191 182 183 178 172 172 178 176 180 199 208 189 169 160 156 151 145 155 168 148 93 90 92 99 105 100 92
332 334 327 320 320 315 284 249 253 245 215 205 205 203 195 193 183 182 183 178 175 177 183 180 185 196 201 194 171 158 153 151 147 162 164 139 99 86 79 83 84 83 87
326 328 326 319 312 309 300 274 268 233 212 215 215 204 194 190 186 184 183 183 184 185 187 187 188 188 187 187 170 153 146 142 131 119 113 100 87 80 77 72 66 69 92
324 324 319 307 302 304 301 298 282 237 228 226 219 209 199 190 187 188 190 190 195 191 188 192 184 181 193 202 184 168 167 167 160 133 102 87 83 78 66 66 68 67 73
323 322 320 312 304 303 299 296 277 247 231 233 224 215 204 192 183 175 166 179 189 193 190 183 176 188 188 180 180 176 172 166 156 136 135 140 137 134 129 116 93 76 80
Height
1497 1500 1502 1503 1505 1506 1507 1508 1508 1508 1508 1508 1508 1508 1507 1507 1506 1505 1503 1501 1500 1498 1497 1496 1495 1494 1493 1492 1492 1492 1492 1492 1492 1492 1493 1494 1495 1497 1498 1499 1501 1502 1503
1495 1497 1500 1501 1503 1504 1505 1506 1507 1507 1507 1507 1507 1507 1506 1506 1505 1504 1503 1501 1500 1498 1497 1496 1494 1493 1493 1492 1491 1491 1491 1491 1491 1492 1492 1493 1495 1495 1496 1498 1499 1500 1502
1491 1494 1497 1499 1501 1502 1504 1504 1505 1506 1506 1506 1506 1506 1506 1505 1504 1503 1502 1501 1499 1498 1497 1495 1494 1493 1492 1492 1491 1491 1491 1491 1491 1492 1493 1493 1494 1494 1496 1496 1497 1498 1500
1488 1491 1494 1496 1499 1501 1502 1503 1504 1504 1505 1505 1505 1505 1505 1504 1504 1503 1502 1501 1499 1498 1497 1495 1494 1493 1492 1491 1491 1491 1491 1491 1491 1492 1492 1493 1494 1494 1494 1496 1496 1497 1498
1485 1488 1491 1494 1497 1499 1500 1501 1502 1503 1503 1504 1504 1504 1504 1503 1503 1502 1501 1500 1499 1498 1497 1495 1494 1493 1492 1491 1491 1490 1490 1490 1491 1491 1492 1493 1493 1494 1494 1495 1496 1496 1497
1484 1487 1490 1493 1496 1498 1499 1500 1501 1501 1502 1502 1503 1503 1503 1502 1502 1502 1501 1500 1499 1498 1497 1496 1495 1493 1492 1491 1491 1490 1490 1490 1490 1491 1491 1492 1493 1493 1494 1494 1495 1495 1496
1483 1486 1489 1491 1493 1495 1497 1498 1499 1500 1500 1501 1501 1502 1502 1501 1501 1501 1500 1499 1499 1498 1497 1496 1495 1494 1493 1492 1491 1490 1490 1490 1490 1491 1491 1492 1492 1493 1493 1494 1494 1495 1495
1482 1484 1486 1488 1491 1493 1494 1496 1497 1498 1499 1499 1500 1500 1501 1500 1500 1500 1500 1499 1498 1498 1497 1496 1495 1494 1493 1492 1491 1491 1490 1490 1490 1490 1491 1491 1492 1492 1493 1493 1494 1494 1495
1481 1482 1484 1486 1488 1490 1492 1493 1495 1496 1497 1497 1498 1499 1499 1499 1499 1499 1499 1498 1498 1497 1497 1496 1495 1494 1493 1492 1492 1491 1490 1490 1490 1490 1490 1491 1491 1491 1492 1492 1493 1494 1494
1479 1480 1482 1484 1486 1488 1490 1491 1493 1494 1495 1496 1496 1497 1498 1498 1498 1498 1498 1498 1497 1497 1497 1496 1495 1494 1493 1493 1492 1491 1491 1490 1490 1490 1490 1490 1490 1490 1491 1491 1492 1492 1493
1477 1478 1480 1482 1484 1486 1488 1489 1490 1491 1492 1494 1494 1495 1496 1497 1497 1497 1497 1497 1496 1496 1496 1495 1495 1494 1493 1493 1492 1491 1491 1490 1490 1489 1489 1489 1489 1489 1489 1490 1490 1491 1491
1475 1476 1478 1480 1482 1483 1485 1486 1488 1489 1490 1491 1492 1493 1494 1495 1495 1495 1495 1495 1495 1495 1495 1494 1494 1494 1493 1492 1492 1491 1490 1490 1489 1489 1489 1488 1488 1488 1488 1489 1489 1490 1490
1474 1475 1476 1477 1479 1480 1482 1483 1485 1486 1487 1489 1490 1491 1492 1492 1493 1493 1494 1494 1494 1494 1493 1493 1493 1492 1492 1491 1491 1490 1490 1489 1489 1488 1488 1487 1487 1487 1487 1488 1488 1488 1489
1473 1474 1474 1475 1476 1477 1478 1480 1481 1483 1484 1486 1487 1488 1489 1490 1491 1491 1492 1492 1492 1492 1492 1491 1491 1491 1490 1490 1490 1489 1489 1488 1488 1488 1487 1487 1486 1486 1486 1487 1487 1487 1487
1472 1472 1472 1473 1473 1474 1475 1476 1478 1479 1481 1482 1483 1485 1486 1487 1488 1489 1490 1490 1490 1490 1490 1490 1489 1489 1489 1488 1488 1488 1487 1487 1487 1486 1486 1486 1486 1486 1486 1486 1486 1486 1486
1471 1470 1470 1470 1470 1471 1472 1473 1474 1475 1477 1478 1480 1482 1483 1484 1485 1486 1487 1487 1487 1487 1487 1487 1487 1487 1486 1486 1486 1486 1485 1485 1485 1485 1485 1485 1485 1485 1485 1485 1485 1485 1484
1471 1469 1467 1467 1467 1467 1468 1469 1470 1472 1473 1474 1476 1478 1479 1481 1482 1483 1484 1484 1485 1485 1485 1485 1485 1484 1484 1484 1484 1483 1483 1483 1483 1483 1483 1483 1483 1483 1483 1484 1483 1483 1483
1470 1468 1465 1464 1463 1464 1464 1465 1467 1468 1469 1471 1472 1474 1475 1477 1478 1479 1480 1481 1482 1482 1482 1482 1482 1482 1482 1481 1481 1481 1481 1481 1480 1481 1481 1481 1481 1482 1482 1482 1482 1482 1482
1469 1466 1464 1463 1461 1461 1461 1462 1463 1464 1465 1466 1467 1469 1471 1473 1474 1475 1476 1477 1478 1479 1479 1479 1479 1479 1479 1479 1478 1478 1478 1478 1478 1478 1478 1479 1479 1479 1480 1480 1480 1480 1480
1468 1465 1463 1461 1460 1459 1459 1459 1459 1459 1460 1462 1463 1465 1467 1468 1470 1471 1472 1474 1474 1475 1476 1476 1476 1476 1476 1476 1476 1476 1476 1476 1476 1476 1476 1476 1477 1477 1477 1478 1478 1478 1478
1467 1464 1461 1459 1458 1457 1456 1455 1455 1455 1456 1458 1459 1460 1462 1463 1465 1467 1468 1469 1471 1471 1472 1472 1473 1473 1473 1473 1473 1473 1473 1473 1473 1473 1474 1474 1475 1475 1475 1475 1476 1476 1476
1465 1462 1459 1457 1456 1455 1453 1451 1451 1451 1453 1453 1454 1455 1457 1459 1460 1462 1464 1465 1466 1467 1468 1469 1469 1469 1470 1470 1470 1470 1471 1471 1471 1471 1472 1472 1472 1473 1473 1473 1473 1473 1473
1465 1461 1458 1455 1453 1452 1451 1449 1448 1448 1448 1448 1449 1450 1452 1453 1455 1457 1458 1460 1461 1462 1463 1464 1465 1466 1466 1467 1467 1468 1468 1469 1469 1469 1470 1470 1470 1470 1470 1470 1471 1471 1471
1463 1459 1456 1453 1450 1448 1447 1446 1445 1444 1443 1443 1443 1445 1446 1448 1449 1451 1453 1454 1456 1457 1459 1460 1461 1462 1463 1463 1464 1465 1466 1466 1467 1467 1467 1468 1468 1468 1468 1468 1468 1468 1469
1460 1457 1453 1450 1447 1445 1443 1441 1440 1439 1438 1438 1438 1439 1440 1442 1443 1445 1447 1448 1450 1452 1454 1455 1456 1457 1458 1460 1461 1462 1463 1463 1464 1465 1465 1465 1466 1466 1466 1466 1466 1466 1466
1457 1453 1450 1447 1443 1441 1438 1437 1435 1434 1433 1432 1432 1433 1434 1435 1437 1439 1441 1442 1445 1447 1448 1450 1452 1453 1455 1456 1457 1458 1460 1460 1461 1462 1462 1463 1463 1464 1464 1464 1464 1464 1464